| time (UTC) | temp F | wind direction | speed MPH | gust MPH | rain 1hr in | rain 24hr in | rain mn in | humidity % | barometer mb |
| 20260505140518 | 32 | 337 | 6.0 | 13.0 | 0.00 | 0.00 | 0.00 | 1 | 1019.5 |
| 20260505130108 | 30 | 273 | 6.0 | 9.0 | 0.00 | 0.00 | 0.00 | 1 | 1019.1 |
| 20260505125019 | 30 | 280 | 6.0 | 9.0 | 0.00 | 0.00 | 0.00 | 1 | 1018.9 |
| 20260505124601 | 30 | 294 | 6.0 | 9.0 | 0.00 | 0.00 | 0.00 | 1 | 1019.0 |
| 20260505124020 | 30 | 286 | 6.0 | 10.0 | 0.00 | 0.00 | 0.00 | 1 | 1019.0 |
| 20260505123520 | 30 | 281 | 7.0 | 10.0 | 0.00 | 0.00 | 0.00 | 1 | 1019.2 |
| 20260505123056 | 29 | 265 | 7.0 | 9.0 | 0.00 | 0.00 | 0.00 | 1 | 1019.2 |
| 20260505122522 | 30 | 281 | 7.0 | 10.0 | 0.00 | 0.00 | 0.00 | 1 | 1018.9 |
| 20260505122203 | 30 | 279 | 7.0 | 10.0 | 0.00 | 0.00 | 0.00 | 1 | 1019.1 |
| 20260505121604 | 30 | 296 | 7.0 | 9.0 | 0.00 | 0.00 | 0.00 | 1 | 1019.1 |
| 20260505121013 | 30 | 283 | 5.0 | 8.0 | 0.00 | 0.00 | 0.00 | 1 | 1019.1 |
| 20260505120510 | 30 | 302 | 6.0 | 9.0 | 0.00 | 0.00 | 0.00 | 1 | 1019.0 |
| 20260505120035 | 30 | 298 | 5.0 | 10.0 | 0.00 | 0.00 | 0.00 | 1 | 1019.3 |
| 20260505115512 | 30 | 304 | 7.0 | 10.0 | 0.00 | 0.00 | 0.00 | 1 | 1019.2 |
| 20260505115010 | 30 | 304 | 7.0 | 10.0 | 0.00 | 0.00 | 0.00 | 1 | 1019.0 |
| 20260505114538 | 30 | 310 | 7.0 | 9.0 | 0.00 | 0.00 | 0.00 | 1 | 1019.2 |
| 20260505114012 | 30 | 300 | 6.0 | 9.0 | 0.00 | 0.00 | 0.00 | 1 | 1019.1 |
| 20260505113513 | 30 | 288 | 6.0 | 11.0 | 0.00 | 0.00 | 0.00 | 1 | 1019.0 |
| 20260505113041 | 31 | 296 | 8.0 | 12.0 | 0.00 | 0.00 | 0.00 | 1 | 1018.9 |
| 20260505112514 | 31 | 302 | 8.0 | 12.0 | 0.00 | 0.00 | 0.00 | 1 | 1018.9 |
| 20260505112011 | 31 | 292 | 9.0 | 12.0 | 0.00 | 0.00 | 0.00 | 1 | 1018.8 |
| 20260505111540 | 31 | 304 | 8.0 | 12.0 | 0.00 | 0.00 | 0.00 | 1 | 1018.6 |
| 20260505111011 | 31 | 303 | 7.0 | 11.0 | 0.00 | 0.00 | 0.00 | 1 | 1018.8 |
| 20260505110511 | 31 | 311 | 8.0 | 11.0 | 0.00 | 0.00 | 0.00 | 1 | 1018.7 |
| 20260505102010 | 32 | 326 | 9.0 | 12.0 | 0.00 | 0.00 | 0.00 | 1 | 1018.7 |
| 20260505101542 | 33 | 327 | 10.0 | 14.0 | 0.00 | 0.00 | 0.00 | 1 | 1018.6 |
| 20260505101010 | 33 | 331 | 10.0 | 14.0 | 0.00 | 0.00 | 0.00 | 1 | 1018.6 |
| 20260505100513 | 33 | 338 | 9.0 | 14.0 | 0.00 | 0.00 | 0.00 | 1 | 1018.7 |
| 20260505100043 | 34 | 349 | 10.0 | 14.0 | 0.00 | 0.00 | 0.00 | 1 | 1018.6 |
| 20260505095510 | 34 | 346 | 11.0 | 16.0 | 0.00 | 0.00 | 0.00 | 1 | 1018.5 |
| 20260505095015 | 34 | 360 | 12.0 | 17.0 | 0.00 | 0.00 | 0.00 | 1 | 1018.5 |
| 20260505094533 | 35 | 324 | 14.0 | 17.0 | 0.00 | 0.00 | 0.00 | 1 | 1018.5 |
| 20260505094010 | 35 | 317 | 12.0 | 16.0 | 0.00 | 0.00 | 0.00 | 1 | 1018.6 |
| 20260505093513 | 35 | 5 | 12.0 | 16.0 | 0.00 | 0.00 | 0.00 | 1 | 1018.5 |
| 20260505093040 | 35 | 350 | 11.0 | 16.0 | 0.00 | 0.00 | 0.00 | 1 | 1018.4 |
| 20260505092514 | 35 | 346 | 8.0 | 10.0 | 0.00 | 0.00 | 0.00 | 1 | 1018.6 |
| 20260505092014 | 35 | 351 | 8.0 | 12.0 | 0.00 | 0.00 | 0.00 | 1 | 1018.5 |
| 20260505091559 | 36 | 343 | 8.0 | 15.0 | 0.00 | 0.00 | 0.00 | 1 | 1018.5 |
| 20260505091013 | 36 | 331 | 11.0 | 15.0 | 0.00 | 0.00 | 0.00 | 1 | 1018.3 |
| 20260505090513 | 36 | 336 | 9.0 | 12.0 | 0.00 | 0.00 | 0.00 | 1 | 1018.3 |
| 20260505090055 | 36 | 341 | 9.0 | 12.0 | 0.00 | 0.00 | 0.00 | 1 | 1018.2 |
| 20260505085511 | 36 | 349 | 8.0 | 13.0 | 0.00 | 0.00 | 0.00 | 1 | 1018.1 |
| 20260505085015 | 36 | 347 | 10.0 | 14.0 | 0.00 | 0.00 | 0.00 | 1 | 1018.1 |
| 20260505084539 | 36 | 351 | 11.0 | 15.0 | 0.00 | 0.00 | 0.00 | 1 | 1018.1 |
| 20260505084013 | 36 | 335 | 11.0 | 15.0 | 0.00 | 0.00 | 0.00 | 1 | 1018.1 |
| 20260505083519 | 36 | 339 | 10.0 | 13.0 | 0.00 | 0.00 | 0.00 | 1 | 1018.0 |
| 20260505083048 | 36 | 339 | 8.0 | 11.0 | 0.00 | 0.00 | 0.00 | 1 | 1018.0 |
| 20260505082511 | 36 | 351 | 7.0 | 12.0 | 0.00 | 0.00 | 0.00 | 1 | 1018.0 |
| 20260505082013 | 36 | 328 | 7.0 | 12.0 | 0.00 | 0.00 | 0.00 | 1 | 1018.0 |
| 20260505081545 | 36 | 342 | 6.0 | 10.0 | 0.00 | 0.00 | 0.00 | 1 | 1018.0 |
| 20260505081015 | 36 | 333 | 6.0 | 10.0 | 0.00 | 0.00 | 0.00 | 1 | 1018.0 |
| 20260505080514 | 37 | 322 | 5.0 | 8.0 | 0.00 | 0.00 | 0.00 | 1 | 1018.0 |
| 20260505080046 | 37 | 316 | 5.0 | 8.0 | 0.00 | 0.00 | 0.00 | 1 | 1018.1 |
| 20260505075514 | 37 | 306 | 6.0 | 8.0 | 0.00 | 0.00 | 0.00 | 1 | 1018.0 |
| 20260505075012 | 37 | 310 | 6.0 | 8.0 | 0.00 | 0.00 | 0.00 | 1 | 1018.0 |
| 20260505074542 | 37 | 325 | 5.0 | 10.0 | 0.00 | 0.00 | 0.00 | 1 | 1018.0 |
| 20260505074016 | 37 | 328 | 7.0 | 12.0 | 0.00 | 0.00 | 0.00 | 1 | 1018.0 |
| 20260505073513 | 37 | 337 | 9.0 | 13.0 | 0.00 | 0.00 | 0.00 | 1 | 1017.8 |
| 20260505073047 | 37 | 319 | 10.0 | 13.0 | 0.00 | 0.00 | 0.00 | 1 | 1017.9 |
| 20260505072514 | 37 | 339 | 9.0 | 12.0 | 0.00 | 0.00 | 0.00 | 1 | 1018.0 |
| 20260505072012 | 37 | 329 | 7.0 | 12.0 | 0.00 | 0.00 | 0.00 | 1 | 1017.8 |
| 20260505071546 | 38 | 312 | 9.0 | 14.0 | 0.00 | 0.00 | 0.00 | 1 | 1017.8 |
| 20260505071013 | 38 | 323 | 10.0 | 14.0 | 0.00 | 0.00 | 0.00 | 1 | 1017.8 |
| 20260505070515 | 38 | 324 | 10.0 | 14.0 | 0.00 | 0.00 | 0.00 | 1 | 1017.7 |
| 20260505070040 | 38 | 321 | 9.0 | 13.0 | 0.00 | 0.00 | 0.00 | 1 | 1017.8 |
| 20260505065514 | 38 | 316 | 10.0 | 17.0 | 0.00 | 0.00 | 0.00 | 1 | 1017.9 |
| 20260505065017 | 38 | 338 | 13.0 | 19.0 | 0.00 | 0.00 | 0.00 | 1 | 1017.9 |
| 20260505064539 | 38 | 340 | 13.0 | 19.0 | 0.00 | 0.00 | 0.00 | 1 | 1018.1 |
| 20260505064011 | 38 | 348 | 12.0 | 17.0 | 0.00 | 0.00 | 0.00 | 1 | 1017.8 |
| 20260505063514 | 38 | 338 | 11.0 | 19.0 | 0.00 | 0.00 | 0.00 | 1 | 1017.9 |
| 20260505063046 | 38 | 360 | 15.0 | 19.0 | 0.00 | 0.00 | 0.00 | 1 | 1017.9 |
| 20260505062514 | 38 | 327 | 11.0 | 17.0 | 0.00 | 0.00 | 0.00 | 1 | 1017.8 |
| 20260505062013 | 37 | 326 | 7.0 | 11.0 | 0.00 | 0.00 | 0.00 | 1 | 1018.1 |
| 20260505061546 | 37 | 329 | 3.0 | 7.0 | 0.00 | 0.00 | 0.00 | 1 | 1018.1 |
| 20260505061017 | 37 | 61 | 0.0 | 9.0 | 0.00 | 0.00 | 0.00 | 1 | 1018.0 |
| 20260505060513 | 37 | 350 | 5.0 | 9.0 | 0.00 | 0.00 | 0.00 | 1 | 1018.0 |
| 20260505060048 | 38 | 40 | 3.0 | 12.0 | 0.00 | 0.00 | 0.00 | 1 | 1017.9 |
| 20260505055515 | 38 | 73 | 9.0 | 16.0 | 0.00 | 0.00 | 0.00 | 1 | 1017.9 |
| 20260505055012 | 38 | 57 | 9.0 | 16.0 | 0.00 | 0.00 | 0.00 | 1 | 1018.0 |
| 20260505054549 | 36 | 67 | 9.0 | 14.0 | 0.00 | 0.00 | 0.00 | 1 | 1017.8 |
| 20260505054015 | 35 | 65 | 8.0 | 11.0 | 0.00 | 0.00 | 0.00 | 1 | 1018.0 |
| 20260505053514 | 35 | 70 | 5.0 | 6.0 | 0.00 | 0.00 | 0.00 | 1 | 1018.0 |
| 20260505053047 | 35 | 49 | 4.0 | 5.0 | 0.00 | 0.00 | 0.00 | 1 | 1017.8 |
| 20260505052514 | 35 | 49 | 3.0 | 5.0 | 0.00 | 0.00 | 0.00 | 1 | 1017.7 |
| 20260505052014 | 36 | 49 | 4.0 | 5.0 | 0.00 | 0.00 | 0.00 | 1 | 1017.8 |
| 20260505051549 | 36 | 49 | 3.0 | 5.0 | 0.00 | 0.00 | 0.00 | 1 | 1017.7 |
| 20260505051012 | 35 | 49 | 3.0 | 5.0 | 0.00 | 0.00 | 0.00 | 1 | 1017.8 |
| 20260505050514 | 35 | 49 | 4.0 | 5.0 | 0.00 | 0.00 | 0.00 | 1 | 1017.8 |
| 20260505041600 | 37 | 36 | 4.0 | 9.0 | 0.00 | 0.00 | 0.00 | 1 | 1017.4 |
| 20260505041016 | 37 | 36 | 5.0 | 11.0 | 0.00 | 0.00 | 0.00 | 1 | 1017.5 |
| 20260505040513 | 37 | 42 | 7.0 | 11.0 | 0.00 | 0.00 | 0.00 | 1 | 1017.5 |
| 20260505040050 | 37 | 45 | 9.0 | 11.0 | 0.00 | 0.00 | 0.00 | 1 | 1017.4 |
| 20260505035519 | 37 | 46 | 9.0 | 11.0 | 0.00 | 0.00 | 0.00 | 1 | 1017.4 |
| 20260505035014 | 37 | 42 | 7.0 | 12.0 | 0.00 | 0.00 | 0.00 | 1 | 1017.3 |
| 20260505034609 | 38 | 44 | 7.0 | 12.0 | 0.00 | 0.00 | 0.00 | 1 | 1017.0 |
| 20260505034015 | 38 | 60 | 8.0 | 13.0 | 0.00 | 0.00 | 0.00 | 1 | 1017.1 |
| 20260505033515 | 38 | 42 | 8.0 | 13.0 | 0.00 | 0.00 | 0.00 | 1 | 1017.1 |
| 20260505033045 | 38 | 42 | 6.0 | 14.0 | 0.00 | 0.00 | 0.00 | 1 | 1017.1 |
| 20260505032517 | 38 | 42 | 7.0 | 14.0 | 0.00 | 0.00 | 0.00 | 1 | 1017.0 |
| 20260505032011 | 38 | 53 | 9.0 | 13.0 | 0.00 | 0.00 | 0.00 | 1 | 1016.8 |
| 20260505031543 | 39 | 44 | 8.0 | 13.0 | 0.00 | 0.00 | 0.00 | 1 | 1017.0 |
| 20260505031015 | 39 | 40 | 10.0 | 15.0 | 0.00 | 0.00 | 0.00 | 1 | 1016.8 |
| 20260505030516 | 39 | 36 | 9.0 | 14.0 | 0.00 | 0.00 | 0.00 | 1 | 1016.8 |
| 20260505030057 | 39 | 40 | 10.0 | 14.0 | 0.00 | 0.00 | 0.00 | 1 | 1016.5 |
| 20260505025515 | 40 | 47 | 7.0 | 13.0 | 0.00 | 0.00 | 0.00 | 1 | 1016.5 |
| 20260505025016 | 40 | 40 | 10.0 | 16.0 | 0.00 | 0.00 | 0.00 | 1 | 1016.5 |
| 20260505024551 | 41 | 40 | 10.0 | 16.0 | 0.00 | 0.00 | 0.00 | 1 | 1016.5 |
| 20260505024012 | 41 | 28 | 9.0 | 17.0 | 0.00 | 0.00 | 0.00 | 1 | 1016.5 |
| 20260505023514 | 41 | 26 | 12.0 | 17.0 | 0.00 | 0.00 | 0.00 | 1 | 1016.2 |
| 20260505023053 | 42 | 27 | 12.0 | 21.0 | 0.00 | 0.00 | 0.00 | 1 | 1016.2 |
| 20260505022516 | 42 | 47 | 14.0 | 21.0 | 0.00 | 0.00 | 0.00 | 1 | 1016.2 |
| 20260505022016 | 43 | 38 | 12.0 | 18.0 | 0.00 | 0.00 | 0.00 | 1 | 1016.1 |
| 20260505021554 | 44 | 34 | 11.0 | 16.0 | 0.00 | 0.00 | 0.00 | 1 | 1016.3 |
| 20260505021017 | 45 | 26 | 9.0 | 17.0 | 0.00 | 0.00 | 0.00 | 1 | 1016.2 |
| 20260505020514 | 45 | 24 | 13.0 | 17.0 | 0.00 | 0.00 | 0.00 | 1 | 1016.2 |
| 20260505020106 | 46 | 15 | 11.0 | 17.0 | 0.00 | 0.00 | 0.00 | 1 | 1016.2 |
| 20260505015516 | 46 | 360 | 13.0 | 22.0 | 0.00 | 0.00 | 0.00 | 1 | 1015.9 |
| 20260505015015 | 47 | 23 | 15.0 | 22.0 | 0.00 | 0.00 | 0.00 | 1 | 1015.7 |
| 20260505014548 | 47 | 15 | 16.0 | 26.0 | 0.00 | 0.00 | 0.00 | 1 | 1015.8 |
| 20260505014014 | 47 | 5 | 19.0 | 26.0 | 0.00 | 0.00 | 0.00 | 1 | 1015.6 |
| 20260505013516 | 47 | 355 | 19.0 | 24.0 | 0.00 | 0.00 | 0.00 | 1 | 1015.5 |
| 20260505013053 | 48 | 5 | 19.0 | 24.0 | 0.00 | 0.00 | 0.00 | 1 | 1015.2 |
| 20260505012514 | 48 | 352 | 17.0 | 25.0 | 0.00 | 0.00 | 0.00 | 1 | 1015.4 |
| 20260505012020 | 48 | 348 | 19.0 | 25.0 | 0.00 | 0.00 | 0.00 | 1 | 1015.3 |
| 20260505011550 | 48 | 360 | 17.0 | 23.0 | 0.00 | 0.00 | 0.00 | 1 | 1015.1 |
| 20260505011014 | 49 | 355 | 13.0 | 24.0 | 0.00 | 0.00 | 0.00 | 1 | 1015.3 |
| 20260505010514 | 49 | 12 | 18.0 | 28.0 | 0.00 | 0.00 | 0.00 | 1 | 1015.2 |
| 20260505010109 | 49 | 5 | 19.0 | 31.0 | 0.00 | 0.00 | 0.00 | 1 | 1015.1 |
| 20260505005516 | 49 | 5 | 23.0 | 31.0 | 0.00 | 0.00 | 0.00 | 1 | 1014.9 |
| 20260505005019 | 49 | 360 | 22.0 | 29.0 | 0.00 | 0.00 | 0.00 | 1 | 1014.8 |
| 20260505004550 | 50 | 333 | 18.0 | 26.0 | 0.00 | 0.00 | 0.00 | 1 | 1015.1 |
| 20260505004012 | 50 | 360 | 14.0 | 26.0 | 0.00 | 0.00 | 0.00 | 1 | 1015.2 |
| 20260505003516 | 50 | 337 | 20.0 | 27.0 | 0.00 | 0.00 | 0.00 | 1 | 1014.6 |
| 20260505003050 | 50 | 348 | 21.0 | 31.0 | 0.00 | 0.00 | 0.00 | 1 | 1014.7 |
| 20260505002519 | 50 | 344 | 21.0 | 31.0 | 0.00 | 0.00 | 0.00 | 1 | 1014.7 |
| 20260505002015 | 50 | 5 | 20.0 | 26.0 | 0.00 | 0.00 | 0.00 | 1 | 1014.5 |
| 20260505001548 | 51 | 344 | 20.0 | 32.0 | 0.00 | 0.00 | 0.00 | 1 | 1015.0 |
| 20260505001018 | 51 | 318 | 22.0 | 32.0 | 0.00 | 0.00 | 0.00 | 1 | 1015.0 |
| 20260505000516 | 51 | 360 | 22.0 | 30.0 | 0.00 | 0.00 | 0.00 | 1 | 1014.6 |
| 20260505000100 | 51 | 345 | 19.0 | 32.0 | 0.00 | 0.00 | 0.00 | 1 | 1015.0 |
| 20260504235516 | 51 | 346 | 20.0 | 30.0 | 0.00 | 0.00 | 0.00 | 1 | 1014.9 |
| 20260504235016 | 52 | 335 | 24.0 | 34.0 | 0.00 | 0.00 | 0.00 | 1 | 1014.7 |
| 20260504234552 | 51 | 336 | 27.0 | 34.0 | 0.00 | 0.00 | 0.00 | 1 | 1014.3 |
| 20260504234013 | 51 | 327 | 23.0 | 33.0 | 0.00 | 0.00 | 0.00 | 1 | 1014.8 |
| 20260504233515 | 51 | 337 | 24.0 | 33.0 | 0.00 | 0.00 | 0.00 | 1 | 1014.7 |
| 20260504233054 | 51 | 347 | 20.0 | 34.0 | 0.00 | 0.00 | 0.00 | 1 | 1014.9 |
| 20260504232513 | 51 | 360 | 27.0 | 34.0 | 0.00 | 0.00 | 0.00 | 1 | 1014.2 |
| 20260504232016 | 52 | 340 | 23.0 | 34.0 | 0.00 | 0.00 | 0.00 | 1 | 1014.7 |
| 20260504231552 | 52 | 322 | 20.0 | 32.0 | 0.00 | 0.00 | 0.00 | 1 | 1014.9 |
| 20260504231015 | 51 | 333 | 24.0 | 36.0 | 0.00 | 0.00 | 0.00 | 1 | 1014.4 |
| 20260504230512 | 51 | 306 | 22.0 | 34.0 | 0.00 | 0.00 | 0.00 | 1 | 1014.8 |
| 20260504230108 | 52 | 340 | 22.0 | 34.0 | 0.00 | 0.00 | 0.00 | 1 | 1014.7 |
| 20260504225514 | 52 | 342 | 20.0 | 31.0 | 0.00 | 0.00 | 0.00 | 1 | 1015.0 |
| 20260504225012 | 51 | 346 | 25.0 | 33.0 | 0.00 | 0.00 | 0.00 | 1 | 1014.5 |
| 20260504224606 | 51 | 343 | 27.0 | 33.0 | 0.00 | 0.00 | 0.00 | 1 | 1014.7 |
| 20260504224013 | 51 | 339 | 24.0 | 31.0 | 0.00 | 0.00 | 0.00 | 1 | 1014.7 |
| 20260504223516 | 52 | 322 | 22.0 | 31.0 | 0.00 | 0.00 | 0.00 | 1 | 1014.9 |
| 20260504223100 | 51 | 325 | 22.0 | 35.0 | 0.00 | 0.00 | 0.00 | 1 | 1014.8 |
| 20260504222513 | 51 | 324 | 23.0 | 35.0 | 0.00 | 0.00 | 0.00 | 1 | 1014.2 |
| 20260504222014 | 50 | 324 | 23.0 | 34.0 | 0.00 | 0.00 | 0.00 | 1 | 1014.9 |
| 20260504221549 | 51 | 340 | 24.0 | 31.0 | 0.00 | 0.00 | 0.00 | 1 | 1014.7 |
| 20260504221014 | 52 | 299 | 17.0 | 30.0 | 0.00 | 0.00 | 0.00 | 1 | 1015.1 |
| 20260504220515 | 51 | 349 | 20.0 | 31.0 | 0.00 | 0.00 | 0.00 | 1 | 1015.3 |
| 20260504220059 | 50 | 328 | 24.0 | 31.0 | 0.00 | 0.00 | 0.00 | 1 | 1014.9 |
| 20260504215517 | 50 | 317 | 24.0 | 31.0 | 0.00 | 0.00 | 0.00 | 1 | 1014.6 |
| 20260504215013 | 50 | 344 | 22.0 | 35.0 | 0.00 | 0.00 | 0.00 | 1 | 1014.9 |
| 20260504214556 | 50 | 338 | 25.0 | 35.0 | 0.00 | 0.00 | 0.00 | 1 | 1014.6 |
| 20260504214019 | 51 | 338 | 21.0 | 30.0 | 0.00 | 0.00 | 0.00 | 1 | 1015.0 |
| 20260504213516 | 51 | 360 | 21.0 | 30.0 | 0.00 | 0.00 | 0.00 | 1 | 1015.1 |
| 20260504213050 | 51 | 301 | 21.0 | 29.0 | 0.00 | 0.00 | 0.00 | 1 | 1015.0 |
| 20260504212516 | 49 | 305 | 19.0 | 32.0 | 0.00 | 0.00 | 0.00 | 1 | 1015.2 |
| 20260504212014 | 48 | 310 | 22.0 | 33.0 | 0.00 | 0.00 | 0.00 | 1 | 1015.2 |
| 20260504211558 | 49 | 320 | 24.0 | 33.0 | 0.00 | 0.00 | 0.00 | 1 | 1015.3 |
| 20260504211016 | 50 | 355 | 23.0 | 32.0 | 0.00 | 0.00 | 0.00 | 1 | 1015.3 |
| 20260504210521 | 51 | 325 | 23.0 | 32.0 | 0.00 | 0.00 | 0.00 | 1 | 1015.3 |
| 20260504210106 | 49 | 360 | 24.0 | 32.0 | 0.00 | 0.00 | 0.00 | 1 | 1015.3 |
| 20260504205517 | 52 | 342 | 20.0 | 32.0 | 0.00 | 0.00 | 0.00 | 1 | 1015.2 |
| 20260504205017 | 50 | 338 | 24.0 | 30.0 | 0.00 | 0.00 | 0.00 | 1 | 1015.1 |
| 20260504204602 | 48 | 339 | 18.0 | 28.0 | 0.00 | 0.00 | 0.00 | 1 | 1015.5 |
| 20260504204020 | 47 | 344 | 21.0 | 30.0 | 0.00 | 0.00 | 0.00 | 1 | 1015.6 |
| 20260504203517 | 48 | 323 | 22.0 | 31.0 | 0.00 | 0.00 | 0.00 | 1 | 1015.8 |
| 20260504203057 | 48 | 326 | 20.0 | 31.0 | 0.00 | 0.00 | 0.00 | 1 | 1015.5 |
| 20260504202518 | 49 | 314 | 21.0 | 30.0 | 0.00 | 0.00 | 0.00 | 1 | 1015.4 |
| 20260504202016 | 49 | 312 | 19.0 | 30.0 | 0.00 | 0.00 | 0.00 | 1 | 1015.7 |
| 20260504201552 | 49 | 316 | 22.0 | 31.0 | 0.00 | 0.00 | 0.00 | 1 | 1015.5 |
| 20260504201016 | 49 | 317 | 18.0 | 33.0 | 0.00 | 0.00 | 0.00 | 1 | 1015.5 |
| 20260504200514 | 50 | 287 | 17.0 | 33.0 | 0.00 | 0.00 | 0.00 | 1 | 1015.5 |
| 20260504195516 | 50 | 346 | 19.0 | 30.0 | 0.00 | 0.00 | 0.00 | 1 | 1015.4 |
| 20260504195019 | 49 | 355 | 21.0 | 30.0 | 0.00 | 0.00 | 0.00 | 1 | 1015.0 |
| 20260504194609 | 50 | 327 | 19.0 | 30.0 | 0.00 | 0.00 | 0.00 | 1 | 1015.2 |
| 20260504194017 | 51 | 286 | 19.0 | 29.0 | 0.00 | 0.00 | 0.00 | 1 | 1015.5 |
| 20260504193521 | 49 | 346 | 20.0 | 31.0 | 0.00 | 0.00 | 0.00 | 1 | 1015.0 |
| 20260504193102 | 50 | 338 | 20.0 | 31.0 | 0.00 | 0.00 | 0.00 | 1 | 1015.4 |
| 20260504192518 | 49 | 348 | 23.0 | 29.0 | 0.00 | 0.00 | 0.00 | 1 | 1015.0 |
| 20260504192016 | 50 | 325 | 21.0 | 28.0 | 0.00 | 0.00 | 0.00 | 1 | 1015.3 |
| 20260504191609 | 52 | 342 | 19.0 | 27.0 | 0.00 | 0.00 | 0.00 | 1 | 1015.4 |
| 20260504191018 | 50 | 329 | 21.0 | 28.0 | 0.00 | 0.00 | 0.00 | 1 | 1015.0 |
| 20260504190520 | 51 | 305 | 19.0 | 29.0 | 0.00 | 0.00 | 0.00 | 1 | 1015.0 |
| 20260504190100 | 50 | 344 | 24.0 | 29.0 | 0.00 | 0.00 | 0.00 | 1 | 1015.0 |
| 20260504185515 | 51 | 322 | 19.0 | 32.0 | 0.00 | 0.00 | 0.00 | 1 | 1015.1 |
| 20260504185019 | 52 | 317 | 24.0 | 31.0 | 0.00 | 0.00 | 0.00 | 1 | 1014.9 |
| 20260504184603 | 50 | 315 | 23.0 | 31.0 | 0.00 | 0.00 | 0.00 | 1 | 1015.4 |
| 20260504184018 | 49 | 336 | 22.0 | 32.0 | 0.00 | 0.00 | 0.00 | 1 | 1015.3 |
| 20260504183518 | 50 | 341 | 22.0 | 34.0 | 0.00 | 0.00 | 0.00 | 1 | 1015.4 |
| 20260504183100 | 50 | 345 | 21.0 | 34.0 | 0.00 | 0.00 | 0.00 | 1 | 1015.3 |
| 20260504182520 | 50 | 322 | 20.0 | 27.0 | 0.00 | 0.00 | 0.00 | 1 | 1015.4 |
| 20260504182021 | 49 | 331 | 20.0 | 31.0 | 0.00 | 0.00 | 0.00 | 1 | 1015.3 |
| 20260504181604 | 49 | 327 | 22.0 | 29.0 | 0.00 | 0.00 | 0.00 | 1 | 1015.2 |
| 20260504181017 | 50 | 294 | 18.0 | 30.0 | 0.00 | 0.00 | 0.00 | 1 | 1015.3 |
| 20260504180517 | 50 | 323 | 23.0 | 32.0 | 0.00 | 0.00 | 0.00 | 1 | 1015.3 |
| 20260504180103 | 50 | 332 | 23.0 | 32.0 | 0.00 | 0.00 | 0.00 | 1 | 1015.2 |
| 20260504175515 | 50 | 335 | 25.0 | 32.0 | 0.00 | 0.00 | 0.00 | 1 | 1015.2 |
| 20260504175021 | 50 | 331 | 24.0 | 30.0 | 0.00 | 0.00 | 0.00 | 1 | 1015.3 |
| 20260504174600 | 50 | 338 | 19.0 | 33.0 | 0.00 | 0.00 | 0.00 | 1 | 1015.4 |
| 20260504174023 | 50 | 330 | 20.0 | 27.0 | 0.00 | 0.00 | 0.00 | 1 | 1014.9 |
| 20260504173522 | 50 | 334 | 19.0 | 30.0 | 0.00 | 0.00 | 0.00 | 1 | 1015.6 |
| 20260504173101 | 49 | 325 | 22.0 | 30.0 | 0.00 | 0.00 | 0.00 | 1 | 1015.4 |
| 20260504172525 | 49 | 344 | 18.0 | 31.0 | 0.00 | 0.00 | 0.00 | 1 | 1015.6 |
| 20260504172024 | 49 | 302 | 19.0 | 31.0 | 0.00 | 0.00 | 0.00 | 1 | 1015.5 |
| 20260504171554 | 48 | 342 | 19.0 | 31.0 | 0.00 | 0.00 | 0.00 | 1 | 1015.4 |
| 20260504171024 | 49 | 345 | 20.0 | 25.0 | 0.00 | 0.00 | 0.00 | 1 | 1015.5 |
| 20260504170519 | 48 | 349 | 19.0 | 28.0 | 0.00 | 0.00 | 0.00 | 1 | 1015.3 |
| 20260504151015 | 46 | 321 | 18.0 | 24.0 | 0.00 | 0.00 | 0.00 | 1 | 1015.5 |
| 20260504150516 | 45 | 315 | 17.0 | 24.0 | 0.00 | 0.00 | 0.00 | 1 | 1015.7 |